This is the latest recevied weather packets stored in our database for station/object DM1HF-13. If no packets are shown the sender has not sent any weather packets the latest 10 day(s).
| Time | Temp. | Humidity | Pressure | Rain* | Wind** | Luminosity | Snow |
|---|---|---|---|---|---|---|---|
| 1777890917 | 22.22° C | 47% | 1015.6 hPa | 0 mm | - | 566 W/m² | - |
| 1777890617 | 22.22° C | 45% | 1015.7 hPa | 0 mm | - | 607 W/m² | - |
| 1777890317 | 21.67° C | 47% | 1015.6 hPa | 0 mm | - | 544 W/m² | - |
| 1777890017 | 22.22° C | 46% | 1015.8 hPa | 0 mm | - | 557 W/m² | - |
| 1777889716 | 21.67° C | 47% | 1015.8 hPa | 0 mm | - | 569 W/m² | - |
| 1777889417 | 21.67° C | 47% | 1015.8 hPa | 0 mm | - | 587 W/m² | - |
| 1777889117 | 22.22° C | 46% | 1015.8 hPa | 0 mm | - | 567 W/m² | - |
| 1777888817 | 21.67° C | 46% | 1015.8 hPa | 0 mm | - | 547 W/m² | - |
| 1777888517 | 21.67° C | 47% | 1015.8 hPa | 0 mm | - | 460 W/m² | - |
| 1777888217 | 21.67° C | 46% | 1015.8 hPa | 0 mm | - | 583 W/m² | - |
| 1777887917 | 21.67° C | 46% | 1015.8 hPa | 0 mm | - | 500 W/m² | - |
| 1777887617 | 21.67° C | 46% | 1015.9 hPa | 0 mm | - | 537 W/m² | - |
| 1777887317 | 22.22° C | 47% | 1016 hPa | 0 mm | - | 553 W/m² | - |
| 1777887017 | 21.67° C | 46% | 1016 hPa | 0 mm | - | 534 W/m² | - |
| 1777886717 | 21.67° C | 46% | 1016 hPa | 0 mm | - | 551 W/m² | - |
| 1777886417 | 21.11° C | 46% | 1016.1 hPa | 0 mm | - | 557 W/m² | - |
| 1777886117 | 21.11° C | 46% | 1016.1 hPa | 0 mm | - | 542 W/m² | - |
| 1777885817 | 21.11° C | 47% | 1016.1 hPa | 0 mm | - | 561 W/m² | - |
| 1777885517 | 20.56° C | 49% | 1016.1 hPa | 0 mm | - | 657 W/m² | - |
| 1777885217 | 21.11° C | 46% | 1016 hPa | 0 mm | - | 285 W/m² | - |
| 1777884917 | 21.11° C | 47% | 1016.1 hPa | 0 mm | - | 542 W/m² | - |
| 1777884617 | 21.11° C | 48% | 1016 hPa | 0 mm | - | 336 W/m² | - |
| 1777884317 | 21.11° C | 46% | 1016.1 hPa | 0 mm | - | 367 W/m² | - |
| 1777884017 | 20.56° C | 47% | 1016 hPa | 0 mm | - | 383 W/m² | - |
| 1777883717 | 21.11° C | 46% | 1016 hPa | 0 mm | - | 515 W/m² | - |
* Rain latest hour (hover to see other rain measurements)
** Current wind speed in m/s (hover to see current wind gust speed)